Change the Weather History Date:

Wednesday, November 20, 2013

  Actual Average Record
Temperature  
Mean Temperature 75 °F -  
Max Temperature 86 °F 79 °F 87 °F (1973)
Min Temperature 64 °F 57 °F 34 °F (1951)
Cooling Degree Days 10    
Growing Degree Days 25 (Base 50)    
Moisture  
Dew Point 66 °F    
Average Humidity 66    
Maximum Humidity 100    
Minimum Humidity 48    
Precipitation  
Precipitation 0.06 in - - ()
Sea Level Pressure  
Sea Level Pressure 30.06 in    
Wind  
Wind Speed 6 mph (NE)    
Max Wind Speed 14 mph    
Max Gust Speed 18 mph    
Visibility 10 miles    
Events Rain    
Averages and records for this station are not official NWS values.
T = Trace of Precipitation, MM = Missing Value Source: NWS Daily Summary

Daily Weather History Graph

Daily Weather History Graph

Search for Another Location

Airport or City:

Trip Planner

Search our weather history database for the weather conditions in past years. The results will help you decide how hot, cold, wet, or windy it might be!

Date:

Astronomy

Nov. 20, 2013 Rise Set
Actual Time 6:54 AM EST 5:34 PM EST
Civil Twilight 6:29 AM EST 5:59 PM EST
Nautical Twilight 6:00 AM EST 6:27 PM EST
Astronomical Twilight 5:32 AM EST 6:55 PM EST
Moon 8:15 PM EST (11/20) 9:18 AM EST (11/20)
Length of Visible Light 11h 29m
Length of Day
10h 39m
Waning Gibbous, 91% of the Moon is Illuminated
Nov 20
Waning Gibbous
Nov 25
Last Quarter
Dec 2
New
Dec 9
First Quarter
Dec 17
Full

Hourly Weather History & Observations

Time (EST) Temp. Heat Index Dew Point Humidity Pressure Visibility Wind Dir Wind Speed Gust Speed Precip Events Conditions
12:15 AM 66.2 °F - 62.6 °F 88% 30.01 in 10.0 mi NNE 5.8 mph - N/A   Scattered Clouds
12:35 AM 64.4 °F - 62.6 °F 94% 30.01 in 10.0 mi NNE 4.6 mph - N/A   Scattered Clouds
12:55 AM 64.4 °F - 64.4 °F 100% 30.01 in 10.0 mi NNE 4.6 mph - N/A   Mostly Cloudy
1:15 AM 64.4 °F - - N/A% 30.01 in 10.0 mi NNE 3.5 mph - N/A   Scattered Clouds
1:35 AM 64.4 °F - - N/A% 30.01 in 10.0 mi North 5.8 mph - N/A   Mostly Cloudy
1:55 AM 64.4 °F - - N/A% 30.01 in 10.0 mi NNE 5.8 mph - N/A   Overcast
2:15 AM 64.4 °F - - N/A% 30.01 in 10.0 mi NNE 5.8 mph - N/A   Overcast
2:35 AM 64.4 °F - - N/A% 30.01 in 10.0 mi NE 4.6 mph - N/A   Mostly Cloudy
2:55 AM 64.4 °F - - N/A% 30.01 in 10.0 mi NE 5.8 mph - N/A   Mostly Cloudy
3:15 AM 64.4 °F - - N/A% 30.01 in 10.0 mi NE 5.8 mph - N/A   Mostly Cloudy
3:35 AM 64.4 °F - - N/A% 30.01 in 10.0 mi NE 5.8 mph - N/A   Mostly Cloudy
3:55 AM 64.4 °F - - N/A% 30.01 in 10.0 mi NNE 4.6 mph - N/A   Overcast
4:15 AM 64.4 °F - - N/A% 30.01 in 10.0 mi NNE 6.9 mph - N/A   Mostly Cloudy
4:35 AM 64.4 °F - - N/A% 30.01 in 10.0 mi NNE 5.8 mph - N/A   Scattered Clouds
4:55 AM 64.4 °F - - N/A% 30.02 in 10.0 mi NNE 5.8 mph - N/A   Mostly Cloudy
5:15 AM 64.4 °F - - N/A% 30.01 in 10.0 mi NE 4.6 mph - N/A   Mostly Cloudy
5:35 AM 64.4 °F - - N/A% 30.02 in 10.0 mi NNE 5.8 mph - N/A   Scattered Clouds
5:55 AM 64.4 °F - - N/A% 30.02 in 10.0 mi ENE 6.9 mph - N/A   Clear
6:15 AM 64.4 °F - - N/A% 30.02 in 10.0 mi ENE 5.8 mph - N/A   Clear
6:35 AM 64.4 °F - - N/A% 30.03 in 10.0 mi NE 4.6 mph - N/A   Scattered Clouds
6:55 AM 64.4 °F - - N/A% 30.04 in 10.0 mi Calm Calm - N/A   Scattered Clouds
7:15 AM 64.4 °F - - N/A% 30.04 in 7.0 mi North 3.5 mph - N/A   Clear
7:35 AM 66.2 °F - - N/A% 30.05 in 10.0 mi NNE 5.8 mph - N/A   Clear
7:55 AM 66.2 °F - - N/A% 30.07 in 10.0 mi NNE 4.6 mph - N/A   Clear
8:15 AM 66.2 °F - - N/A% 30.06 in 10.0 mi NE 6.9 mph - N/A   Clear
8:35 AM 69.8 °F - - N/A% 30.08 in 10.0 mi NNE 4.6 mph - N/A   Clear
8:55 AM 69.8 °F - - N/A% 30.08 in 10.0 mi Calm Calm - N/A   Scattered Clouds
9:15 AM 71.6 °F - - N/A% 30.08 in 10.0 mi ENE 6.9 mph - N/A   Scattered Clouds
9:35 AM 75.2 °F - 66.2 °F 73% 30.08 in 10.0 mi North - - N/A   Clear
9:55 AM 78.8 °F - 66.2 °F 65% 30.08 in 10.0 mi East 6.9 mph - N/A   Clear
10:15 AM 78.8 °F - 66.2 °F 65% 30.08 in 10.0 mi ENE 9.2 mph - N/A   Clear
10:35 AM 78.8 °F - 66.2 °F 65% 30.08 in 10.0 mi East 6.9 mph - N/A   Clear
10:55 AM 80.6 °F 82.7 °F 66.2 °F 61% 30.09 in 10.0 mi ENE 6.9 mph - N/A   Scattered Clouds
11:15 AM 80.6 °F 82.7 °F 66.2 °F 61% 30.08 in 10.0 mi ENE 5.8 mph - N/A   Mostly Cloudy
11:35 AM 80.6 °F 82.7 °F 66.2 °F 61% 30.08 in 10.0 mi NE 10.4 mph - N/A   Scattered Clouds
11:55 AM 82.4 °F 84.6 °F 66.2 °F 58% 30.07 in 10.0 mi ENE 10.4 mph - N/A   Scattered Clouds
12:15 PM 84.2 °F 86.6 °F 66.2 °F 55% 30.06 in 10.0 mi East 8.1 mph - N/A   Scattered Clouds
12:35 PM 82.4 °F 84.6 °F 66.2 °F 58% 30.05 in 10.0 mi East 9.2 mph - N/A   Scattered Clouds
12:55 PM 84.2 °F 86.6 °F 66.2 °F 55% 30.04 in 10.0 mi ENE 9.2 mph - N/A   Scattered Clouds
1:15 PM 84.2 °F 86.6 °F 66.2 °F 55% 30.04 in 10.0 mi East 6.9 mph - N/A   Scattered Clouds
1:35 PM 86.0 °F 87.3 °F 64.4 °F 48% 30.03 in 10.0 mi East 3.5 mph - N/A   Mostly Cloudy
1:55 PM 84.2 °F 86.6 °F 66.2 °F 55% 30.02 in 10.0 mi ENE 6.9 mph - N/A   Overcast
2:15 PM 86.0 °F 87.3 °F 64.4 °F 48% 30.02 in 10.0 mi NE 5.8 mph - N/A   Mostly Cloudy
2:35 PM 84.2 °F 85.6 °F 64.4 °F 51% 30.01 in 10.0 mi ENE 6.9 mph - N/A   Scattered Clouds
2:55 PM 82.4 °F 84.6 °F 66.2 °F 58% 30.01 in 10.0 mi North 13.8 mph 17.3 mph N/A   Mostly Cloudy
3:15 PM 80.6 °F 83.2 °F 68.0 °F 65% 30.02 in 10.0 mi NE 8.1 mph - N/A   Overcast
3:35 PM 80.6 °F 83.2 °F 68.0 °F 65% 30.03 in 10.0 mi NE 10.4 mph - N/A   Mostly Cloudy
3:55 PM 78.8 °F - 68.0 °F 69% 30.04 in 7.0 mi ENE 13.8 mph 18.4 mph N/A Rain Light Rain
4:15 PM 75.2 °F - 68.0 °F 78% 30.04 in 10.0 mi ENE 12.7 mph - N/A Rain Light Rain
4:35 PM 75.2 °F - 73.4 °F 94% 30.05 in 7.0 mi ENE 6.9 mph - 0.05 in Rain Light Rain
4:55 PM 75.2 °F - - N/A% 30.05 in 7.0 mi ENE 10.4 mph - 0.05 in   Light Drizzle
5:15 PM 73.4 °F - - N/A% 30.06 in 7.0 mi ENE 6.9 mph - 0.01 in   Light Drizzle
5:35 PM 73.4 °F - - N/A% 30.06 in 10.0 mi ENE 6.9 mph - 0.01 in   Overcast
5:55 PM 73.4 °F - - N/A% 30.06 in 10.0 mi ENE 8.1 mph - 0.01 in   Mostly Cloudy
6:15 PM 73.4 °F - - N/A% 30.08 in 10.0 mi ENE 6.9 mph - N/A   Overcast
6:35 PM 73.4 °F - - N/A% 30.08 in 10.0 mi East 6.9 mph - N/A   Mostly Cloudy
6:55 PM 73.4 °F - - N/A% 30.09 in 10.0 mi ENE 9.2 mph - N/A   Scattered Clouds
7:15 PM 73.4 °F - - N/A% 30.09 in 10.0 mi ENE 9.2 mph - N/A   Clear
7:35 PM 73.4 °F - - N/A% 30.10 in 10.0 mi ENE 6.9 mph - N/A   Clear
7:55 PM 73.4 °F - - N/A% 30.11 in 10.0 mi ENE 8.1 mph - N/A   Clear
8:15 PM 73.4 °F - - N/A% 30.12 in 10.0 mi ENE 8.1 mph - N/A   Clear
8:35 PM 73.4 °F - - N/A% 30.12 in 10.0 mi ENE 8.1 mph - N/A   Mostly Cloudy
8:55 PM 73.4 °F - - N/A% 30.12 in 10.0 mi ENE 8.1 mph - N/A   Scattered Clouds
9:15 PM 73.4 °F - - N/A% 30.12 in 10.0 mi East 6.9 mph - N/A   Clear
9:35 PM 71.6 °F - - N/A% 30.12 in 10.0 mi ENE 8.1 mph - N/A   Clear
9:55 PM 71.6 °F - - N/A% 30.13 in 10.0 mi ENE 8.1 mph - N/A   Scattered Clouds
10:15 PM 71.6 °F - - N/A% 30.13 in 10.0 mi ENE 6.9 mph - N/A   Scattered Clouds
10:35 PM 71.6 °F - - N/A% 30.13 in 10.0 mi ENE 6.9 mph - N/A   Scattered Clouds
10:55 PM 71.6 °F - - N/A% 30.13 in 10.0 mi ENE 6.9 mph - N/A   Scattered Clouds
11:15 PM 71.6 °F - - N/A% 30.13 in 10.0 mi ENE 6.9 mph - N/A   Scattered Clouds
11:35 PM 71.6 °F - - N/A% 30.13 in 10.0 mi ENE 6.9 mph - N/A   Clear
11:55 PM 71.6 °F - - N/A% 30.13 in 10.0 mi ENE 5.8 mph - N/A   Scattered Clouds